Weather in Yekaterinovka

Russia / Lipetsk Oblast     52°33′23″N   38°41′48″E
temp.,
°C
wind,
m/s
gust,
m/s
humid.,
%
clouds,
%
prec.,
mm/h
press.,
hPa
HPBL,
m
13 april, tue
tue1300:00+12ese4137058 0.0 1025263
03:00+10ese4117256 0.0 1026200
06:00+9ese41075100 0.0 1026172
09:00+14se6115431 0.0 1026425
12:00+19se6103468 0.0 10241216
15:00+20se8112859 0.0 10231550
18:00+19se611350 0.0 1023468
21:00+14ese6144924 0.0 1023336
14 april, wed
wed1400:00+12ese5135939 0.0 1023291
03:00+10ese41065100 0.0 1022178
06:00+9ese4969100 0.0 1021151
09:00+13se5856100 0.0 1021335
12:00+18se58355 0.0 10191152
15:00+19se67265 0.0 10182075
18:00+18se4734100 0.0 1017242
21:00+14se334696 0.0 101732
15 april, thu
thu1500:00+12s225798 0.0 101723
03:00+11nw116991 0.0 101710
06:00+10s1171100 0.0 101711
09:00+13ene235792 0.0 1017199
12:00+18e3342100 0.0 10161041
15:00+19e3534100 0.0 10142179
18:00+18se2243100 0.0 101346
21:00+15wnw2455100 0.0 101468
16 april, fri
fri1600:00+13sw3672100 0.1 1015220
03:00+12n1175100 0.1 101412
06:00+11se227587 0.0 101519
09:00+14e2361100 0.0 1015357
12:00+18ene334893 0.0 10151347
15:00+20e474078 0.0 10152307
18:00+16wsw3460100 0.1 1015294
21:00+12nnw3380100 2.3 101668
17 april, sat
sat1700:00+13ene51174100 1.4 1017348
03:00+11ene7137589 2.2 1018478
06:00+9ene7148584 0.4 1019491
09:00+11ene9127434 0.4 1020707
12:00+13ene8105778 0.0 10221331
15:00+14ene8104627 0.0 10231546
18:00+12ene811402 0.0 10241338
21:00+9ene713440 0.0 1028717